Presure
198 211 201 193 204 188 192 211 176 183 188 210 215 218 220 220 221 221 218 217 216 220 217 221 219 216 225 219 228 218 218 213 217 217 228 355 367 399 378 362 366 389 302 289 271 267 258 249 235 224 216 217 208 209
196 194 180 200 200 207 204 207 218 206 217 187 216 204 208 216 223 218 216 223 226 221 224 226 222 218 221 224 223 217 217 229 223 214 313 371 398 369 355 362 400 343 292 294 269 275 256 240 231 218 213 209 207 207
194 198 181 205 191 183 217 179 210 201 211 225 203 215 221 220 220 225 221 214 216 220 218 216 220 221 224 229 226 222 233 219 236 257 378 392 361 353 360 358 390 308 288 296 264 270 241 231 218 220 214 206 209 202
184 184 192 182 205 182 179 203 204 212 210 209 213 210 214 217 222 218 226 224 214 216 214 217 214 220 229 222 234 234 222 222 247 355 381 389 346 353 362 356 338 303 289 276 276 251 239 224 221 210 210 208 203 202
214 215 195 189 185 210 214 181 194 212 216 214 206 202 189 175 219 220 222 217 219 218 219 212 226 224 226 217 236 228 217 241 274 373 390 341 329 340 344 302 314 289 296 271 251 242 233 223 218 207 208 210 201 193
206 206 202 201 195 197 205 214 174 203 213 186 209 212 204 215 217 226 224 221 223 226 226 219 224 225 242 238 225 218 237 260 373 387 342 326 320 354 342 345 305 294 288 263 244 238 225 219 211 209 201 202 202 191
208 205 205 194 204 214 149 191 206 191 206 213 226 211 211 216 217 226 225 229 227 227 228 233 231 233 228 215 230 236 254 303 377 347 427 520 320 355 325 307 294 289 258 261 246 235 223 212 203 209 209 202 192 192
216 211 212 193 218 218 211 211 207 206 211 213 214 218 224 221 225 226 230 232 230 224 218 222 222 219 222 228 228 241 271 364 345 495 499 448 349 322 300 297 289 294 259 258 236 232 222 214 203 209 202 203 191 191
223 219 225 218 206 217 211 209 225 209 216 218 219 206 214 221 221 223 226 237 221 227 226 224 215 225 220 231 237 254 364 347 471 484 373 316 321 303 294 298 295 290 262 254 236 226 222 213 210 210 200 202 189 192
226 227 232 230 219 209 225 225 219 219 204 204 218 221 222 221 225 228 237 235 225 228 217 209 222 230 225 236 243 270 361 321 464 320 307 352 312 296 294 291 274 277 277 250 236 218 218 215 207 209 201 201 190 190
217 223 224 222 225 226 228 229 230 224 222 223 210 214 221 227 229 235 231 226 219 211 215 217 231 227 236 239 257 359 333 483 454 295 312 309 289 289 283 290 270 265 265 244 235 223 219 214 207 210 205 200 189 191
216 220 224 227 221 228 223 220 225 225 220 216 215 225 227 231 232 232 219 205 209 214 202 229 224 234 235 250 345 360 303 430 304 284 323 302 288 286 286 298 268 264 252 233 234 222 218 215 210 205 206 200 190 188
222 224 218 218 218 221 225 223 219 220 223 227 225 224 230 232 227 213 217 211 207 204 228 221 229 233 250 290 345 332 288 383 288 282 301 297 287 285 283 269 270 259 246 233 228 224 215 215 209 199 204 199 189 188
223 222 225 220 219 224 229 230 227 222 224 224 221 221 223 226 233 222 214 218 230 223 219 230 231 246 279 331 337 305 463 315 284 326 303 289 279 284 264 265 266 254 244 235 224 209 217 218 208 205 203 197 182 184
227 225 224 222 219 226 223 226 226 225 223 221 221 228 226 224 223 217 219 225 220 218 231 227 240 278 323 323 337 291 377 299 282 306 301 290 278 270 267 266 258 250 247 224 234 213 219 218 209 204 203 200 193 183
233 233 233 230 225 227 221 217 222 226 209 213 217 222 221 227 214 222 220 218 221 233 230 245 293 312 311 314 328 281 468 291 284 291 305 281 262 264 259 267 251 252 257 240 231 220 221 217 212 208 203 200 198 182
237 234 235 233 237 222 224 223 217 213 215 210 218 223 220 218 222 218 223 220 230 231 259 304 300 294 309 319 327 269 450 297 288 292 295 280 261 263 259 271 250 257 242 242 226 221 223 211 214 207 199 203 201 194
245 239 235 233 233 235 233 229 221 223 220 215 218 220 215 219 225 214 227 233 254 315 293 293 287 292 309 321 319 261 418 330 283 285 289 292 272 260 257 263 260 247 253 237 233 220 223 211 219 211 193 203 194 201
283 226 248 248 248 240 237 238 238 232 227 221 224 228 236 174 241 241 257 305 311 298 284 285 277 294 303 316 305 259 333 364 288 275 279 292 288 263 259 261 255 262 257 240 229 232 216 220 213 213 203 210 203 189
287 276 270 264 261 260 260 252 249 246 242 158 201 261 264 275 319 309 298 301 289 282 278 277 277 290 301 310 289 265 252 413 286 270 276 284 290 281 271 258 270 250 261 261 240 236 232 223 216 219 208 198 212 200
297 269 271 271 297 283 269 269 268 266 260 311 87 251 304 306 297 295 281 286 284 267 278 278 282 286 290 302 275 272 251 355 333 278 268 279 283 282 278 292 256 244 261 255 259 244 237 217 220 220 214 205 199 211
289 287 283 300 292 291 296 306 297 295 308 297 297 289 285 287 279 276 282 281 279 272 271 287 286 284 290 295 264 280 266 247 358 309 279 264 271 276 261 289 254 280 240 256 244 260 242 233 216 221 214 213 197 198
282 282 279 278 285 290 280 289 289 283 285 273 273 277 276 276 280 275 274 276 276 281 286 296 284 284 291 295 302 281 282 254 276 315 301 284 270 272 277 259 265 237 248 275 256 264 258 238 230 220 215 209 212 206
281 273 272 273 279 292 288 287 272 270 269 271 272 276 271 269 271 272 273 278 273 276 279 312 314 300 292 291 297 280 282 265 252 281 319 300 297 271 280 252 266 252 266 255 257 263 273 251 234 233 228 216 205 214
265 267 273 273 274 277 276 269 265 264 262 262 268 273 269 270 262 266 275 275 278 307 302 337 310 325 316 290 301 277 268 285 269 260 262 306 297 304 287 248 286 273 251 241 250 261 270 265 249 241 234 228 220 207
274 276 283 277 267 265 260 261 260 259 260 261 268 272 270 268 266 275 281 215 164 323 330 330 341 324 326 313 306 303 276 270 282 273 274 267 309 303 299 281 243 288 256 238 239 235 260 266 254 249 248 240 231 223
275 270 266 261 259 255 255 256 254 251 253 256 267 269 269 274 214 282 295 306 304 319 332 321 309 306 308 302 301 302 279 287 284 278 282 281 323 333 311 292 300 243 282 277 277 263 247 235 263 258 249 251 248 237
262 276 265 261 255 255 252 253 256 255 253 262 272 276 264 125 218 274 270 274 299 334 315 296 295 296 293 302 303 285 281 289 302 322 278 297 264 386 349 321 289 291 241 299 296 265 262 254 251 257 263 248 246 248
266 259 260 263 257 258 257 257 250 263 268 248 258 265 277 238 268 275 276 283 328 311 292 290 182 135 298 308 323 316 322 337 335 330 316 314 330 378 353 336 331 305 303 239 303 260 247 248 259 250 254 254 256 257
268 266 259 258 262 266 266 259 261 259 266 276 246 278 259 265 271 287 305 332 322 297 289 286 300 332 331 333 334 343 352 362 376 390 391 371 352 356 358 331 319 310 313 320 323 278 239 286 318 268 261 262 256 251
269 256 258 257 266 270 270 267 244 273 294 287 277 292 280 206 284 286 253 295 286 277 317 311 318 317 316 320 328 324 328 336 348 354 350 342 340 343 349 340 319 304 302 311 314 326 274 291 299 318 291 251 237 243
275 243 248 254 279 265 223 212 268 288 291 282 293 294 291 300 313 284 275 276 305 305 306 307 302 310 310 300 308 311 312 319 323 335 310 332 329 333 335 337 324 301 290 300 310 311 311 301 272 277 296 308 317 292
270 230 251 196 272 238 231 279 293 296 309 285 283 288 289 280 269 273 286 294 296 296 291 306 318 318 312 308 313 302 305 312 320 323 324 330 330 332 330 325 316 307 293 289 303 313 295 305 308 269 282 312 368 284
Wind_Speed
78 76 67 67 62 67 60 56 68 69 62 53 54 55 57 55 54 56 58 59 60 58 57 56 56 58 57 59 56 56 56 60 63 67 70 52 44 29 22 14 13 33 53 49 49 39 44 50 49 45 41 36 31 27
75 70 79 66 68 62 58 59 58 59 59 61 56 56 55 55 54 56 57 55 54 56 54 54 55 56 56 57 57 56 57 58 63 62 63 42 26 22 15 14 19 49 50 54 47 48 51 52 50 44 40 35 30 29
77 70 81 74 70 71 66 71 58 59 56 59 60 56 57 56 56 57 57 59 57 57 55 54 54 57 57 56 56 57 57 59 64 69 44 30 20 16 13 17 36 55 48 54 48 52 54 53 46 47 40 33 33 28
86 83 76 80 73 76 74 62 60 59 58 57 56 54 55 58 58 57 57 58 58 58 58 56 58 58 57 55 57 56 56 61 67 58 39 19 17 11 20 26 48 55 49 47 50 57 57 53 52 43 41 36 32 28
95 93 80 80 77 75 69 73 61 61 62 60 57 59 56 57 60 59 58 59 59 60 60 60 60 58 56 54 56 54 58 65 72 45 30 16 18 14 28 33 57 48 50 51 60 59 60 57 54 43 41 38 33 26
94 90 84 80 75 72 69 69 69 62 65 70 60 61 61 63 61 62 61 61 59 60 62 60 59 58 60 55 54 54 61 70 49 41 23 19 18 23 35 45 54 53 50 58 62 63 59 56 50 46 39 39 36 26
97 92 88 78 79 79 67 70 67 71 64 65 69 63 61 64 62 64 63 62 61 59 59 59 57 56 54 51 55 60 67 71 45 33 19 13 19 40 46 51 54 49 62 62 66 64 60 52 46 47 44 40 33 29
103 98 94 81 88 83 78 75 71 68 68 69 67 67 68 65 65 64 64 62 60 57 55 55 55 53 54 55 56 63 72 43 36 12 6 10 36 49 49 50 51 51 65 66 65 64 61 57 47 47 45 44 34 29
105 103 98 94 83 86 78 75 79 73 73 73 68 60 63 67 65 64 64 64 56 57 55 56 52 56 54 56 59 67 41 33 15 2 22 28 47 52 51 51 52 52 66 72 68 67 63 57 55 51 45 44 34 31
102 100 99 96 90 82 86 82 81 77 64 67 73 72 70 68 67 67 67 61 56 56 54 51 56 57 55 55 62 63 31 26 2 25 27 49 54 49 49 45 55 55 56 73 70 55 62 61 54 52 47 46 37 32
98 98 96 94 93 91 87 84 84 82 80 77 67 67 71 73 71 69 63 55 54 54 54 55 60 56 58 62 67 30 20 1 15 25 33 50 46 49 48 47 61 65 66 72 69 65 64 63 55 54 51 46 37 33
98 98 95 93 89 89 86 83 84 82 78 75 71 76 75 75 69 64 56 54 54 56 50 59 57 61 59 66 34 22 17 13 30 26 49 51 48 46 49 48 61 68 75 66 69 67 63 64 58 52 51 46 38 33
101 99 95 91 86 85 87 84 79 77 78 79 75 73 73 71 65 59 59 57 55 52 60 55 60 60 71 51 25 14 19 27 29 30 47 53 49 52 54 59 59 69 74 68 74 72 63 66 60 51 54 49 41 36
104 102 98 93 88 87 88 89 84 79 76 77 74 71 70 67 66 60 59 60 62 58 54 62 60 71 61 30 21 16 12 36 31 50 53 53 52 49 59 62 67 70 75 73 73 57 66 67 60 57 57 51 40 37
107 103 98 94 88 89 83 82 80 76 74 72 72 72 70 67 63 60 61 60 59 56 64 60 67 60 31 27 18 20 19 35 34 47 54 57 56 58 59 61 67 70 77 65 76 62 71 69 63 60 59 54 48 40
110 109 103 96 91 90 81 75 76 75 66 67 70 71 68 71 61 63 59 59 61 66 63 75 54 32 30 25 17 23 23 36 45 43 54 60 64 66 64 64 71 68 74 79 78 72 71 70 66 65 61 57 55 42
114 106 104 100 100 88 87 81 72 67 69 68 76 74 71 66 65 60 63 62 69 67 73 36 36 36 32 24 18 29 23 43 50 51 54 65 65 66 67 67 72 71 74 79 79 73 76 66 71 66 59 61 57 53
113 110 102 99 95 93 90 86 76 77 75 79 79 73 66 67 70 61 71 74 73 26 39 37 37 37 31 23 19 32 20 50 54 52 52 63 70 68 69 73 74 75 80 78 81 75 78 69 73 71 57 66 55 58
83 84 110 105 103 98 94 92 88 85 85 85 82 79 84 57 84 82 78 40 29 32 39 35 37 36 29 23 23 34 19 48 62 46 48 60 66 72 75 71 73 78 79 83 80 84 74 79 73 76 70 70 68 54
70 87 99 103 105 102 98 93 91 88 89 45 68 85 82 75 34 38 39 34 40 39 40 36 35 34 31 24 26 35 38 27 64 50 48 53 65 70 75 64 69 69 78 81 85 84 85 82 76 80 77 65 72 67
50 82 83 88 49 72 85 83 83 81 83 49 22 46 44 41 43 39 45 40 37 43 41 34 34 34 31 28 33 37 42 25 62 67 50 54 57 60 55 61 72 69 74 77 79 86 85 74 80 80 79 75 65 73
48 46 49 44 44 46 47 47 48 50 41 45 42 47 49 48 48 47 44 42 42 43 38 34 37 37 33 33 40 37 43 43 44 72 71 48 55 57 50 62 68 65 69 74 76 82 88 87 78 82 80 80 69 67
50 49 48 47 43 44 46 48 46 46 42 46 46 46 47 47 46 47 46 49 44 37 39 37 40 38 37 39 36 41 44 47 43 66 77 71 60 57 58 55 65 73 66 73 72 79 88 88 87 84 83 78 81 79
53 53 48 44 45 43 44 42 43 43 42 41 43 44 47 50 49 48 44 46 40 39 37 41 40 42 39 41 42 42 45 46 48 44 71 77 80 61 66 54 58 75 67 75 74 73 76 89 90 90 90 86 78 85
54 54 52 48 46 45 42 41 41 42 45 48 47 47 51 50 45 45 45 52 47 46 40 39 35 36 38 42 45 44 46 46 47 48 47 76 72 80 72 66 68 69 77 74 74 73 74 83 91 97 92 92 90 81
56 52 48 44 44 41 44 45 47 47 48 49 47 47 47 47 44 44 55 33 20 48 41 34 34 32 32 36 40 44 46 45 47 48 51 46 75 80 79 62 74 76 77 78 77 76 77 82 89 92 93 95 95 92
55 51 47 46 48 48 49 50 49 48 50 48 43 46 47 48 25 52 57 50 42 38 34 26 27 30 31 34 39 43 45 45 51 52 50 46 49 77 85 74 79 81 74 72 77 86 82 78 86 90 91 91 94 94
46 52 50 52 52 53 52 51 49 49 44 46 51 51 42 25 28 34 41 41 34 38 27 27 28 31 34 34 39 46 46 47 48 46 49 47 50 61 75 86 77 74 75 68 73 87 89 88 85 85 89 89 90 93
47 45 45 50 54 54 53 53 50 52 54 53 40 41 46 36 32 38 36 32 48 29 28 27 29 24 32 34 33 35 35 36 38 42 46 47 47 54 66 72 77 81 79 75 74 85 79 79 86 83 86 89 90 93
49 50 51 52 53 56 53 52 54 53 53 53 49 50 30 33 42 51 48 46 36 29 26 26 31 25 24 23 25 26 27 28 28 30 36 43 47 52 57 63 64 63 67 72 77 72 71 70 63 92 85 90 88 84
54 52 55 53 54 56 58 57 38 51 52 49 44 49 45 28 40 38 35 38 36 34 27 30 32 30 27 24 25 28 29 30 29 32 37 41 44 49 54 57 59 58 58 60 61 66 71 66 61 59 82 82 70 72
56 45 43 47 60 56 24 27 50 55 53 47 51 43 41 46 40 38 38 38 32 31 31 31 32 31 28 30 30 32 35 35 35 37 42 43 46 50 53 55 55 55 55 54 56 59 60 65 69 69 63 67 77 83
57 50 55 47 55 36 23 57 58 54 55 32 29 38 35 33 35 45 41 34 34 34 35 34 32 32 34 35 37 41 41 41 42 41 41 44 48 51 53 54 52 52 52 53 55 59 58 59 64 70 64 66 66 80
Wind_Direction
230 239 231 228 238 239 236 245 248 247 249 254 257 259 262 263 265 267 268 269 272 276 278 280 281 283 286 287 289 291 295 298 300 301 304 321 314 304 298 260 208 176 168 169 171 163 156 157 157 155 158 163 164 160
227 226 231 234 234 243 242 246 248 248 251 254 258 258 262 266 268 267 269 273 276 276 281 284 284 285 286 288 290 294 297 301 298 302 318 318 307 296 276 228 196 167 172 170 168 166 160 158 157 158 161 165 162 161
227 226 228 240 230 232 243 246 249 248 252 254 255 260 265 267 267 271 270 271 272 276 280 283 286 286 288 291 294 297 301 299 305 315 321 317 290 287 231 197 172 170 176 172 157 164 160 161 164 160 165 166 163 165
223 225 228 231 242 234 239 244 249 252 253 253 256 259 264 267 270 269 272 273 273 276 280 283 284 288 292 294 299 301 299 299 310 324 319 304 274 248 193 174 166 172 175 165 166 162 161 161 160 164 167 168 165 164
236 237 229 233 231 246 247 242 245 254 253 255 255 258 262 260 271 271 271 273 276 278 282 282 287 291 293 294 301 300 299 309 320 319 315 273 264 215 181 168 169 174 175 165 162 163 163 161 164 166 171 169 167 165
235 236 235 236 235 237 246 249 246 252 256 253 259 261 262 267 272 276 276 274 278 282 284 285 289 291 298 300 299 299 308 319 319 317 296 267 252 192 175 169 171 178 171 165 165 164 166 166 169 169 173 168 169 168
235 236 239 233 242 246 234 240 250 247 255 257 258 260 265 268 273 276 276 277 278 283 287 290 291 295 296 297 303 309 319 324 320 309 302 301 208 170 161 167 174 174 169 167 167 166 169 170 173 173 172 172 170 171
235 237 239 232 245 244 247 250 251 252 255 257 261 263 267 271 274 275 277 277 280 282 282 287 290 293 296 302 307 316 323 322 312 323 315 172 168 166 168 170 175 177 171 167 170 169 171 171 175 176 174 175 173 172
234 238 239 240 241 244 245 248 248 253 255 255 261 259 267 271 272 273 276 280 277 283 285 286 291 295 296 305 313 321 322 317 320 351 157 168 166 169 177 179 175 168 173 170 171 172 173 174 177 177 179 176 176 176
233 236 238 237 241 243 246 247 247 249 251 253 261 266 269 270 271 273 278 279 278 282 282 285 291 296 298 309 316 322 321 310 287 167 175 164 171 174 176 170 168 166 173 173 173 177 175 176 180 180 181 179 178 179
231 233 234 237 239 243 245 246 247 250 254 256 255 264 268 268 271 273 274 276 277 279 284 289 295 296 304 313 319 318 308 344 151 190 178 171 175 176 173 172 172 172 175 176 177 179 179 179 184 182 182 181 182 184
230 233 235 236 238 240 242 245 247 250 253 255 258 264 266 267 269 271 269 270 275 281 284 292 294 299 304 314 315 312 275 174 186 197 173 175 179 175 172 168 174 174 177 180 180 183 184 183 186 185 184 184 186 186
231 232 233 236 237 239 241 244 247 250 254 256 259 261 264 266 267 265 270 273 275 279 287 289 295 298 309 309 306 286 253 186 204 205 187 180 177 174 167 173 172 178 181 182 183 187 188 186 187 188 186 188 190 191
230 231 233 234 237 239 240 243 246 248 252 256 257 260 262 265 267 267 270 275 280 284 285 292 295 300 303 295 293 248 207 196 211 188 188 181 179 175 178 179 178 183 185 186 187 191 190 189 191 190 190 193 198 193
230 232 233 234 236 240 241 243 246 249 251 254 257 261 263 263 264 267 272 276 279 280 289 290 296 296 287 287 277 236 216 204 210 195 189 185 179 175 178 181 184 189 189 193 191 194 192 192 193 193 195 195 197 200
229 231 232 234 236 239 241 242 247 249 246 252 257 259 260 264 264 271 273 276 279 287 287 293 286 277 276 275 258 225 210 203 206 199 190 184 186 186 185 182 187 190 191 192 194 195 195 196 196 196 198 200 199 206
228 231 233 234 236 238 240 242 243 246 250 253 258 259 259 262 268 269 274 276 283 285 288 265 267 273 272 271 247 222 220 202 207 204 194 190 194 190 189 186 189 192 194 194 197 198 196 198 199 200 203 203 203 205
227 231 234 235 237 239 241 244 245 249 252 254 255 257 261 266 270 267 276 277 280 244 263 262 269 269 272 263 232 220 225 201 209 211 202 198 196 195 196 192 190 194 195 197 199 201 199 200 202 202 207 205 209 206
234 227 234 237 238 240 243 245 246 248 251 253 258 262 266 260 269 271 275 259 241 247 256 258 260 266 265 254 221 215 218 204 207 218 211 206 200 201 205 198 199 197 197 199 200 202 203 202 204 204 206 206 207 212
235 236 237 238 240 242 244 247 248 250 253 242 253 265 268 268 238 246 249 241 253 255 254 253 257 262 262 248 215 211 223 221 207 218 222 215 209 206 210 205 201 206 203 202 203 204 203 204 206 207 207 210 208 210
202 234 238 241 234 241 248 251 253 256 257 236 185 242 241 240 245 244 252 252 248 252 251 252 254 256 252 243 211 211 219 223 206 211 217 223 219 219 213 210 206 210 207 208 208 209 207 208 207 210 210 213 214 212
215 221 232 212 223 229 232 219 227 229 221 229 227 235 240 243 250 252 252 249 247 249 250 255 247 250 249 243 213 218 214 222 213 211 214 214 221 222 215 222 206 210 211 211 211 211 212 209 211 210 212 214 218 219
205 207 213 223 220 222 231 216 215 223 222 234 236 238 243 247 248 249 252 254 253 255 259 258 247 247 249 245 235 225 219 216 219 210 216 216 220 222 224 208 216 218 218 213 214 213 214 213 213 213 214 216 217 220
202 210 215 216 215 211 213 212 222 227 231 233 236 240 244 247 251 255 258 262 259 261 263 266 251 245 241 241 239 225 228 217 222 224 213 219 219 219 226 204 209 208 209 215 216 216 215 214 216 216 214 216 219 220
208 209 207 209 212 208 210 215 221 227 232 237 239 242 246 251 256 262 265 264 269 276 269 280 258 257 243 235 237 222 224 226 222 225 230 215 221 223 224 214 229 217 212 217 215 215 216 217 216 218 218 216 217 221
205 203 200 196 201 203 215 219 225 231 236 242 244 249 253 259 265 271 273 275 260 285 286 283 276 257 249 237 236 233 223 225 228 226 226 225 219 224 224 221 206 234 218 216 216 215 217 217 217 219 220 219 219 219
204 202 200 203 208 216 219 225 230 237 243 250 254 259 263 269 268 275 276 280 283 287 284 266 254 251 246 233 233 233 226 226 229 227 229 226 228 219 222 226 229 214 229 220 224 214 217 218 219 220 221 222 221 221
206 203 204 208 216 221 225 231 237 242 250 255 257 258 257 181 257 282 283 278 287 288 273 246 244 243 238 240 235 230 230 229 229 229 226 224 224 224 222 222 226 228 221 233 228 214 218 220 220 220 222 223 224 225
207 207 211 214 221 226 230 234 237 243 244 241 246 253 259 249 266 276 271 280 283 274 252 249 242 235 248 248 247 241 241 242 238 234 228 226 227 229 225 225 224 227 232 222 236 225 228 229 225 224 223 223 226 228
213 211 215 220 225 229 233 236 238 241 246 250 246 254 253 262 266 279 285 269 267 259 249 252 257 246 249 255 258 262 263 259 255 245 230 226 228 230 228 225 227 226 228 232 234 219 230 231 235 227 226 224 227 229
214 217 224 227 228 230 234 238 236 246 250 251 255 260 260 261 276 276 269 269 261 248 265 254 245 240 240 245 248 251 253 250 245 237 232 231 232 234 234 229 227 227 229 232 233 234 222 224 225 228 229 234 236 239
226 217 223 232 234 234 239 238 244 250 248 250 256 262 274 279 267 262 256 253 264 263 261 258 253 247 238 241 243 247 251 248 244 237 230 230 230 231 233 232 229 226 227 232 235 234 231 227 221 223 227 232 229 224
233 227 227 209 233 232 243 244 249 251 254 252 265 272 266 251 248 252 257 259 262 261 262 257 251 251 248 242 242 242 244 244 242 240 238 234 232 231 230 231 230 228 226 229 234 235 230 233 232 227 233 238 232 226